Regional Weather Roundup
Issued by NWS Cleveland, OH

Home | Current Version | Previous Version | Graphics & Text | Print | Product List | Glossary On
Versions: 1 2 3 4 5 6 7 8 9 10 11 12 13 14 15 16 17 18 19 20 21 22 23 24 25 26 27 28 29 30 31 32 33 34 35 36 37 38 39 40 41 42 43 44 45 46 47 48 49 50
000
ASUS41 KCLE 192200
RWRCLE
OHIO REGIONAL WEATHER ROUNDUP
NATIONAL WEATHER SERVICE WILMINGTON, OH
600 PM EDT FRI SEP 19 2014

NOTE: "FAIR" INDICATES FEW OR NO CLOUDS BELOW 12,000 FEET WITH NO
SIGNIFICANT WEATHER AND/OR OBSTRUCTIONS TO VISIBILITY.

OHZ001>008-015>018-024>027-034-035-043-044-192300-
   NORTHWEST OHIO

CITY           SKY/WX    TMP DP  RH WIND       PRES   REMARKS
DEFIANCE       SUNNY     71  45  39 S8        30.10F
FINDLAY        SUNNY     71  45  39 S6        30.11S
TOLEDO EXPRESS SUNNY     68  47  46 E3        30.11F
TOLEDO METCALF SUNNY     66  52  60 NE9       30.13F
LIMA           SUNNY     71  46  40 SE7       30.11F
$$

OHZ009>014-019>023-028>033-038-089-192300-
   NORTHEAST OHIO

CITY           SKY/WX    TMP DP  RH WIND       PRES   REMARKS
CLE-HOPKINS    MOSUNNY   67  53  61 N7        30.15F
CLE-LAKEFRONT  SUNNY     65  55  70 NE12      30.13F
CUY CO. ARPT   MOSUNNY   70  52  52 SE8       30.15F
LORAIN-ELYRIA  SUNNY     72  47  40 SE8       30.13F
ASHTABULA      MOSUNNY   67  48  50 SE3       30.17S
AKRON-CANTON   PTSUNNY   71  48  43 SE3       30.14F
WOOSTER        NOT AVBL
MANSFIELD      SUNNY     69  44  40 S6        30.14F
YOUNGSTOWN     PTSUNNY   69  51  52 SE6       30.15F
$$

OHZ042-051>053-060>062-070>072-077>081-192300-
  SOUTHWEST OHIO

CITY           SKY/WX    TMP DP  RH WIND       PRES   REMARKS
CINC-COVINGTON MOSUNNY   74  48  39 E6        30.08F
CINC-LUNKEN    SUNNY     76  50  40 E7        30.08F
HAMILTON       SUNNY     74  51  44 E5        30.10R
DAYTON         NOT AVBL
WRIGHT-PAT AFB PTSUNNY   74  46  36 E2        30.10F
DAYTON GENERAL SUNNY     72  49  44 E7        30.09F
WILMINGTON     SUNNY     73  44  35 VRB3      30.09F
$$

OHZ036-037-039>041-045>050-054>059-063>069-073>076-082>088-192300-
  CENTRAL AND SOUTHEAST OHIO

CITY           SKY/WX    TMP DP  RH WIND       PRES   REMARKS
COLUMBUS       MOSUNNY   76  46  34 CALM      30.11F
OSU AIRPORT    SUNNY     72  45  37 SE5       30.11F
BOLTON FIELD   SUNNY     73  50  43 NE5       30.11F
RICKENBACK AFB NOT AVBL
NEWARK         SUNNY     73  49  42 E3        30.11F
MARION         SUNNY     71  43  36 S8        30.12F
LANCASTER      SUNNY     75  51  43 E8        30.11F
ZANESVILLE     SUNNY     75  50  41 SE3       30.12S
NEW PHILLY     SUNNY     73  53  49 SE3       30.14S
$$


USA.gov is the U.S. government's official web portal to all federal, state and local government web resources and services.